1489057200.44,11228,8.75,73106.3,-1.61,-14.01,-17.21,0,*5F
1489057201.68,11229,8.75,73106.8,-1.59,-14.61,-17.97,0,*5E
1489057202.9,11230,8.75,73104.0,-1.59,-15.01,-18.25,0,*57
1489057204.14,11231,8.75,73106.0,-1.55,-15.11,-18.31,0,*5E
1489057205.35,11232,8.75,73110.5,-1.59,-15.15,-18.21,0,*54
1489057206.57,11233,8.75,73106.0,-1.59,-15.29,-18.11,0,*59
1489057207.82,11234,8.75,73100.8,-1.61,-16.09,-19.07,0,*52
1489057209.05,11235,8.75,73102.5,-1.63,-16.23,-19.07,0,*59
1489057210.28,11236,8.75,73100.0,-1.63,-16.17,-19.03,0,*59
1489057211.54,11237,8.75,73090.0,-1.65,-16.09,-18.83,0,*58
1489057212.75,11238,8.75,73090.8,-1.67,-16.45,-19.37,0,*53
1489057214.02,11239,8.75,73088.0,-1.71,-16.69,-19.57,0,*5D
1489057215.29,11240,8.75,73094.3,-1.71,-16.69,-19.65,0,*52
1489057216.52,11241,8.75,73088.3,-1.71,-16.79,-19.41,0,*54
1489057217.74,11242,8.75,73092.0,-1.75,-16.83,-19.13,0,*51
1489057218.98,11243,8.75,73092.5,-1.77,-16.55,-18.17,0,*5C
1489057220.18,11244,8.75,73090.0,-1.81,-16.45,-18.17,0,*53
1489057221.39,11245,8.75,73086.3,-1.81,-16.59,-18.11,0,*59
1489057222.65,11246,8.75,73088.3,-1.81,-16.65,-17.97,0,*54
1489057223.88,11247,8.75,73090.5,-1.85,-16.69,-18.07,0,*5B
1489057225.14,11248,8.75,73088.3,-1.85,-16.69,-17.79,0,*52
1489057226.34,11249,8.75,73088.5,-1.89,-16.79,-17.49,0,*5D
1489057227.56,11250,8.75,73088.5,-1.89,-16.37,-16.75,0,*51
1489057228.82,11251,8.75,73090.8,-1.91,-16.37,-17.07,0,*5D
1489057230.08,11252,8.75,73090.3,-1.91,-16.17,-16.93,0,*50
1489057231.33,11253,8.75,73092.0,-1.93,-16.51,-17.63,0,*5F
1489057232.58,11254,8.75,73098.0,-1.95,-17.11,-17.73,0,*5A
1489057233.81,11255,8.75,73094.3,-1.97,-17.11,-17.73,0,*59
1489057235.03,11256,8.75,73094.0,-1.97,-16.97,-17.59,0,*5D
1489057236.26,11257,8.75,73094.0,-2.01,-16.93,-17.63,0,*5D
1489057237.52,11258,8.75,73094.8,-2.01,-17.07,-17.97,0,*55
1489057238.72,11259,8.75,73094.5,-2.01,-16.83,-18.21,0,*5B
1489057239.95,11260,8.75,73092.3,-2.01,-17.03,-18.83,0,*50
1489057241.19,11261,8.75,73092.0,-2.05,-17.07,-19.17,0,*5D
1489057242.47,11262,8.75,73092.3,-2.07,-17.25,-19.31,0,*58
1489057243.75,11263,8.75,73092.5,-2.11,-17.03,-19.23,0,*59
1489057245.04,11264,8.75,73092.0,-2.11,-16.69,-19.41,0,*57
1489057246.24,11265,8.75,73094.5,-2.09,-16.37,-19.13,0,*53
1489057247.5,11266,8.75,73092.3,-2.11,-16.37,-19.41,0,*5E
1489057248.76,11267,8.75,73092.5,-2.11,-16.37,-19.65,0,*59
1489057249.98,11268,8.75,73094.8,-2.15,-16.79,-20.09,0,*58
1489057251.21,11269,8.75,73096.3,-2.15,-17.63,-20.93,0,*50
1489057252.44,11270,8.75,73096.8,-2.17,-18.11,-21.17,0,*5D
1489057253.72,11271,8.75,73094.3,-2.17,-17.79,-20.83,0,*51
1489057254.95,11272,8.75,73094.0,-2.19,-17.69,-20.83,0,*5D
1489057256.21,11273,8.75,73096.3,-2.17,-17.55,-20.89,0,*57
1489057257.44,11274,8.75,73096.5,-2.19,-18.45,-21.57,0,*52
1489057258.67,11275,8.75,73098.5,-2.19,-19.03,-22.17,0,*57
1489057259.92,11276,8.75,73098.3,-2.21,-19.81,-22.53,0,*55
1489057261.18,11277,8.75,73096.3,-2.21,-20.15,-22.63,0,*50
1489057262.44,11278,8.75,73098.3,-2.21,-20.15,-22.53,0,*5C
1489057263.64,11279,8.75,73098.3,-2.23,-20.25,-22.83,0,*51
1489057264.86,11280,8.75,73098.3,-2.27,-20.39,-22.97,0,*5B
1489057266.12,11281,8.75,73098.3,-2.27,-20.49,-23.03,0,*51
1489057267.35,11282,8.75,73102.3,-2.27,-20.49,-22.83,0,*5B
1489057268.62,11283,8.75,73098.8,-2.29,-20.39,-22.77,0,*58
1489057269.85,11284,8.75,73098.8,-2.29,-20.09,-22.63,0,*59
1489057271.11,11285,8.75,73098.0,-2.29,-19.91,-22.31,0,*54
1489057272.35,11286,8.75,73096.5,-2.29,-19.37,-22.11,0,*59
1489057273.62,11287,8.81,73100.0,-2.31,-19.61,-22.77,0,*52
1489057274.85,11288,8.75,73096.5,-2.31,-19.81,-22.63,0,*56
1489057276.05,11289,8.75,73096.8,-2.31,-20.29,-22.41,0,*5F
1489057277.26,11290,8.75,73096.5,-2.31,-19.75,-21.47,0,*51
1489057278.5,11291,8.75,73098.5,-2.33,-19.51,-21.13,0,*55
1489057279.77,11292,8.75,73098.8,-2.29,-19.51,-21.23,0,*5E
1489057281.03,11293,8.75,73096.5,-2.33,-19.03,-21.03,0,*51
1489057282.3,11294,8.75,73100.5,-2.33,-18.45,-20.49,0,*5A
1489057283.54,11295,8.75,73100.3,-2.31,-17.79,-20.05,0,*51
1489057284.78,11296,8.75,73102.3,-2.33,-17.87,-21.39,0,*5F
1489057286.04,11297,8.75,73102.5,-2.33,-19.41,-22.97,0,*5D
1489057287.29,11298,8.75,73102.3,-2.35,-20.35,-23.65,0,*51
1489057288.5,11299,8.75,73100.0,-2.35,-20.73,-23.43,0,*56
1489057289.74,11300,8.75,73100.5,-2.37,-21.13,-23.13,0,*57
1489057290.98,11301,8.75,73100.3,-2.37,-20.63,-22.03,0,*50
1489057292.25,11302,8.75,73104.8,-2.39,-20.83,-21.67,0,*52
1489057293.47,11303,8.75,73104.3,-2.39,-20.69,-20.89,0,*56
1489057294.74,11304,8.75,73100.0,-2.41,-20.83,-20.89,0,*5A
1489057295.98,11305,8.75,73098.8,-2.41,-20.89,-20.43,0,*57
1489057297.2,11306,8.81,73100.5,-2.43,-20.89,-19.99,0,*5B
1489057298.41,11307,8.75,73100.5,-2.43,-20.59,-19.37,0,*53
1489057299.65,11308,8.75,73102.3,-2.43,-19.85,-18.73,0,*56
1489057300.89,11309,8.75,73096.5,-2.43,-19.51,-18.35,0,*5C
1489057302.16,11310,8.75,73102.5,-2.43,-18.93,-18.01,0,*5C
1489057303.42,11311,8.75,73098.3,-2.45,-18.31,-17.45,0,*5C
1489057304.65,11312,8.75,73098.8,-2.45,-17.73,-17.11,0,*57
1489057305.91,11313,8.75,73102.0,-2.45,-17.07,-16.65,0,*57
1489057307.14,11314,8.75,73098.0,-2.45,-16.65,-16.37,0,*52
1489057308.35,11315,8.75,73098.5,-2.45,-16.41,-16.37,0,*55
1489057309.6,11316,8.75,73100.3,-2.49,-16.27,-16.23,0,*5F
1489057310.81,11317,8.75,73098.0,-2.49,-15.71,-15.95,0,*50
1489057312.04,11318,8.75,73096.0,-2.49,-15.35,-15.99,0,*53
1489057313.26,11319,8.75,73102.5,-2.49,-15.07,-16.13,0,*52
1489057314.53,11320,8.75,73102.8,-2.51,-14.83,-16.75,0,*5C
1489057315.79,11321,8.75,73098.3,-2.51,-14.37,-17.11,0,*51
1489057317.07,11322,8.75,73096.5,-2.51,-14.51,-17.79,0,*5C
1489057318.35,11323,8.75,73100.8,-2.51,-14.97,-18.31,0,*54
1489057319.6,11324,8.75,73096.8,-2.51,-15.57,-18.99,0,*5C
1489057320.84,11325,8.75,73098.3,-2.51,-15.81,-18.99,0,*56
1489057322.1,11326,8.75,73092.8,-2.53,-16.31,-19.41,0,*5B
1489057323.33,11327,8.75,73098.3,-2.51,-16.75,-19.71,0,*5B
1489057324.62,11328,8.75,73096.3,-2.51,-17.17,-19.61,0,*50
1489057325.87,11329,8.75,73098.0,-2.51,-17.79,-20.05,0,*51
1489057327.08,11330,8.75,73094.5,-2.53,-18.11,-20.09,0,*56
1489057328.29,11331,8.75,73096.5,-2.53,-18.41,-19.95,0,*5D
1489057329.53,11332,8.75,73098.5,-2.53,-18.83,-20.19,0,*5E
1489057330.74,11333,8.75,73096.5,-2.53,-18.69,-19.91,0,*51
1489057331.97,11334,8.75,73094.8,-2.53,-18.89,-19.95,0,*5C
1489057333.22,11335,8.75,73098.0,-2.53,-18.89,-19.81,0,*58
1489057334.48,11336,8.75,73096.5,-2.51,-19.23,-19.99,0,*51
1489057335.71,11337,8.75,73100.3,-2.53,-19.41,-19.91,0,*5E
1489057336.97,11338,8.75,73098.0,-2.51,-18.93,-19.37,0,*51
1489057338.23,11339,8.75,73100.0,-2.51,-18.79,-19.23,0,*51
1489057339.46,11340,8.75,73102.3,-2.51,-18.83,-19.13,0,*59
1489057340.72,11341,8.75,73106.0,-2.51,-19.13,-19.27,0,*57
1489057341.98,11342,8.75,73104.8,-2.51,-18.35,-18.49,0,*58
1489057343.18,11343,8.81,73108.3,-2.49,-18.21,-18.79,0,*56
1489057344.4,11344,8.75,73104.3,-2.49,-17.73,-18.35,0,*51
1489057345.66,11345,8.75,73106.5,-2.49,-17.25,-18.31,0,*57
1489057346.92,11346,8.75,73108.5,-2.49,-17.03,-18.55,0,*52
1489057348.15,11347,8.75,73112.3,-2.43,-17.07,-19.03,0,*5F
1489057349.41,11348,8.81,73110.8,-2.43,-17.45,-19.85,0,*58
1489057350.65,11349,8.81,73112.0,-2.41,-18.07,-20.73,0,*51
1489057351.89,11350,8.75,73106.3,-2.39,-18.73,-21.67,0,*51
1489057353.11,11351,8.75,73104.5,-2.43,-18.79,-22.11,0,*55
1489057354.33,11352,8.75,73106.3,-2.43,-19.17,-22.93,0,*55
1489057355.56,11353,8.75,73100.5,-2.43,-19.37,-23.65,0,*5E
1489057356.8,11354,8.75,73104.0,-2.43,-19.31,-24.05,0,*5E
1489057358.01,11355,8.75,73104.3,-2.43,-19.99,-24.93,0,*52
1489057359.27,11356,8.75,73106.3,-2.43,-20.49,-25.45,0,*5C
1489057360.51,11357,8.75,73102.5,-2.45,-21.27,-25.19,0,*5B
1489057361.76,11358,8.75,73102.8,-2.45,-21.57,-23.95,0,*51
1489057362.97,11359,8.81,73102.3,-2.45,-20.63,-23.43,0,*5D
1489057364.2,11360,8.75,73096.8,-2.49,-21.73,-23.49,0,*51
1489057365.4,11361,8.81,73096.0,-2.49,-21.77,-23.39,0,*53
1489057366.64,11362,8.75,73098.5,-2.51,-21.93,-22.97,0,*56
1489057367.89,11363,8.75,73096.5,-2.51,-20.79,-21.93,0,*55
1489057369.15,11364,8.75,73094.8,-2.55,-21.97,-23.09,0,*56
1489057370.41,11365,8.81,73100.8,-2.53,-21.83,-22.47,0,*5F
1489057371.64,11366,8.75,73098.3,-2.53,-22.63,-24.41,0,*51
1489057372.93,11367,8.81,73098.3,-2.55,-23.99,-24.71,0,*51
1489057374.19,11368,8.75,73096.5,-2.55,-24.51,-24.87,0,*54
1489057375.42,11369,8.75,73096.0,-2.57,-25.35,-24.87,0,*54
1489057376.68,11370,8.81,73100.3,-2.55,-25.45,-24.15,0,*52
1489057377.94,11371,8.81,73102.8,-2.55,-25.19,-23.19,0,*51
1489057379.19,11372,8.81,73100.0,-2.55,-24.15,-22.07,0,*51
1489057380.43,11373,8.81,73102.3,-2.55,-23.43,-21.93,0,*5A
1489057381.68,11374,8.81,73100.0,-2.55,-23.69,-22.11,0,*5C
1489057382.89,11375,8.75,73098.8,-2.53,-23.89,-22.37,0,*51
1489057384.14,11376,8.81,73098.5,-2.55,-23.89,-22.21,0,*53
1489057385.35,11377,8.75,73096.8,-2.53,-23.89,-21.93,0,*5E
1489057386.56,11378,8.81,73096.8,-2.53,-23.75,-21.47,0,*5B
1489057387.82,11379,8.81,73100.3,-2.51,-23.53,-21.13,0,*5D
1489057389.01,11380,8.75,73096.3,-2.49,-23.39,-21.09,0,*55
1489057390.27,11381,8.81,73096.3,-2.49,-22.73,-20.49,0,*5E
1489057391.5,11382,8.81,73094.8,-2.49,-22.21,-19.71,0,*5B
1489057392.7,11383,8.81,73094.0,-2.49,-22.03,-19.13,0,*5E
1489057393.92,11384,8.81,73100.0,-2.43,-20.93,-17.83,0,*5F
1489057395.17,11385,8.81,73098.0,-2.45,-20.49,-17.25,0,*53
1489057396.41,11386,8.81,73102.3,-2.43,-19.85,-16.83,0,*51
1489057397.66,11387,8.81,73098.8,-2.41,-19.61,-16.45,0,*52
1489057398.88,11388,8.81,73096.5,-2.39,-18.99,-16.03,0,*56
1489057400.12,11389,8.81,73096.8,-2.41,-18.45,-15.71,0,*5F
1489057401.39,11390,8.81,73102.5,-2.37,-17.59,-15.25,0,*55
1489057402.65,11391,8.81,73098.0,-2.37,-16.69,-15.11,0,*51
1489057403.94,11392,8.75,73096.0,-2.37,-16.27,-15.57,0,*5A
1489057405.18,11393,8.81,73096.8,-2.35,-15.75,-15.35,0,*59
1489057406.42,11394,8.81,73102.0,-2.35,-15.15,-14.93,0,*55
1489057407.63,11395,8.81,73100.5,-2.35,-14.89,-15.15,0,*5F
1489057408.9,11396,8.81,73102.5,-2.33,-14.15,-15.01,0,*5A
1489057410.19,11397,8.81,73098.8,-2.33,-14.01,-15.01,0,*5E
1489057411.49,11398,8.81,73100.5,-2.29,-14.55,-15.43,0,*5D
1489057412.73,11399,8.81,73102.3,-2.31,-14.75,-15.49,0,*5D
1489057413.96,11400,8.81,73098.3,-2.31,-14.69,-15.35,0,*5C
1489057415.21,11401,8.81,73104.0,-2.31,-14.11,-14.97,0,*5B
1489057416.47,11402,8.81,73104.5,-2.29,-13.55,-14.83,0,*53
1489057417.7,11403,8.81,73102.3,-2.27,-14.11,-15.29,0,*5A
1489057418.91,11404,8.81,73100.3,-2.27,-13.43,-14.65,0,*54
1489057420.17,11405,8.81,73102.5,-2.27,-13.33,-14.51,0,*55
1489057421.38,11406,8.81,73100.8,-2.23,-13.55,-14.69,0,*59
1489057422.64,11407,8.81,73102.0,-2.21,-13.61,-14.61,0,*55
1489057423.93,11408,8.81,73100.5,-2.21,-13.37,-14.51,0,*5A
1489057425.16,11409,8.81,73098.8,-2.19,-13.47,-14.47,0,*50
1489057426.38,11410,8.81,73102.5,-2.19,-13.33,-14.33,0,*58
1489057427.61,11411,8.81,73100.3,-2.17,-13.15,-14.11,0,*53
1489057428.84,11412,8.81,73100.8,-2.15,-13.61,-14.23,0,*50
1489057430.05,11413,8.81,73102.0,-2.15,-13.15,-13.55,0,*54
1489057431.3,11414,8.81,73096.8,-2.13,-12.53,-13.43,0,*51
1489057432.59,11415,8.81,73098.5,-2.13,-12.65,-13.97,0,*5C
1489057433.83,11416,8.81,73098.8,-2.13,-11.81,-13.69,0,*57
1489057435.09,11417,8.81,73100.5,-2.13,-11.67,-13.51,0,*55
1489057436.34,11418,8.81,73098.5,-2.11,-11.77,-13.65,0,*5E
1489057437.6,11419,8.81,73102.0,-2.11,-11.81,-14.15,0,*56
1489057438.88,11420,8.81,73102.3,-2.11,-11.51,-14.01,0,*54
1489057440.08,11421,8.81,73104.0,-2.09,-11.11,-13.65,0,*5D
1489057441.33,11422,8.81,73096.5,-2.11,-11.07,-13.47,0,*50
1489057442.56,11423,8.81,73096.5,-2.09,-11.37,-13.65,0,*5B
1489057443.76,11424,8.81,73102.0,-2.05,-11.19,-13.69,0,*50
1489057445.02,11425,8.81,73102.3,-2.05,-11.59,-14.01,0,*5C
1489057446.28,11426,8.81,73100.8,-2.05,-11.59,-13.61,0,*5E
1489057447.51,11427,8.81,73098.5,-2.01,-11.73,-13.65,0,*57
1489057448.73,11428,8.81,73102.8,-2.01,-12.11,-13.69,0,*53
1489057449.99,11429,8.81,73100.5,-1.99,-11.67,-13.51,0,*59
1489057451.22,11430,8.81,73100.5,-1.99,-11.45,-13.43,0,*52
1489057452.5,11431,8.81,73102.8,-1.99,-11.33,-13.83,0,*5E
1489057453.75,11432,8.81,73100.0,-1.97,-11.81,-14.97,0,*58
1489057454.95,11433,8.81,73100.8,-1.97,-13.47,-16.79,0,*53
1489057456.16,11434,8.81,73100.0,-1.97,-14.37,-17.31,0,*59
1489057457.41,11435,8.81,73100.0,-1.97,-15.39,-18.01,0,*5B
1489057458.63,11436,8.81,73098.3,-1.97,-15.39,-17.73,0,*52
1489057459.9,11437,8.81,73096.5,-1.99,-15.43,-18.11,0,*5B
1489057461.12,11438,8.81,73096.5,-2.01,-15.57,-18.41,0,*56
1489057462.32,11439,8.81,73100.0,-2.01,-15.67,-18.79,0,*5F
1489057463.57,11440,8.81,73098.0,-2.01,-15.81,-18.55,0,*57
1489057464.79,11441,8.81,73098.5,-2.01,-15.57,-18.69,0,*52
1489057466.0,11442,8.81,73098.8,-2.01,-16.59,-20.05,0,*5D
1489057467.21,11443,8.81,73092.3,-2.05,-16.93,-20.09,0,*52
1489057468.42,11444,8.81,73098.0,-2.01,-16.59,-19.17,0,*52
1489057469.67,11445,8.81,73096.8,-2.01,-16.69,-18.89,0,*56
1489057470.89,11446,8.81,73100.5,-2.01,-16.89,-18.89,0,*5B
1489057472.11,11447,8.81,73096.3,-2.01,-17.07,-18.99,0,*5C
1489057473.31,11448,8.81,73096.5,-2.01,-17.49,-19.03,0,*5B
1489057474.53,11449,8.81,73098.0,-2.01,-16.83,-18.11,0,*5F
1489057475.78,11450,8.81,73094.0,-2.01,-17.03,-18.35,0,*58
1489057477.02,11451,8.81,73098.8,-2.01,-16.55,-17.79,0,*5C
1489057478.21,11452,8.81,73096.3,-2.01,-16.89,-18.25,0,*58
1489057479.46,11453,8.81,73096.8,-1.99,-16.69,-18.25,0,*55
1489057480.7,11454,8.81,73100.3,-2.01,-16.27,-17.83,0,*59
1489057481.95,11455,8.81,73102.0,-1.99,-15.99,-17.45,0,*56
1489057483.19,11456,8.81,73100.0,-1.99,-15.29,-16.83,0,*55
1489057484.44,11457,8.81,73102.3,-1.99,-14.83,-15.67,0,*5C
1489057485.69,11458,8.81,73102.8,-1.99,-13.65,-14.43,0,*5B
1489057486.92,11459,8.81,73102.0,-1.99,-13.11,-13.93,0,*53
1489057488.13,11460,8.81,73102.3,-1.97,-12.25,-13.19,0,*53
1489057489.38,11461,8.81,73100.5,-1.97,-12.35,-13.87,0,*54
1489057490.64,11462,8.81,73098.8,-1.95,-13.07,-14.51,0,*59
1489057491.89,11463,8.81,73100.5,-1.93,-13.87,-16.65,0,*53
1489057493.09,11464,8.81,73102.3,-1.93,-14.69,-16.97,0,*5E
1489057494.32,11465,8.81,73098.5,-1.93,-14.89,-17.41,0,*5B
1489057495.57,11466,8.81,73100.0,-1.91,-15.35,-18.41,0,*53
1489057496.8,11467,8.81,73102.3,-1.89,-16.75,-19.31,0,*5A
1489057498.05,11468,8.81,73098.8,-1.89,-17.79,-19.81,0,*53
1489057499.29,11469,8.81,73098.5,-1.89,-18.25,-20.19,0,*5F
1489057500.5,11470,8.81,73098.3,-1.89,-19.17,-20.25,0,*58
1489057501.74,11471,8.81,73096.0,-1.85,-19.27,-18.69,0,*55
1489057502.97,11472,8.81,73098.3,-1.85,-18.17,-17.79,0,*5A
1489057504.23,11473,8.81,73096.8,-1.83,-18.01,-17.69,0,*5B
1489057505.52,11474,8.81,73094.8,-1.83,-19.57,-18.93,0,*54
1489057506.78,11475,8.81,73092.5,-1.83,-19.23,-16.93,0,*58
1489057508.01,11476,8.81,73094.3,-1.81,-18.25,-16.17,0,*52
1489057509.27,11477,8.81,73092.3,-1.81,-17.97,-15.35,0,*56
1489057510.54,11478,8.81,73094.8,-1.77,-17.87,-14.93,0,*5C
1489057511.8,11479,8.81,73094.5,-1.73,-17.07,-14.29,0,*50
1489057513.05,11480,8.81,73094.5,-1.73,-16.55,-13.87,0,*53
1489057514.28,11481,8.81,73092.0,-1.69,-15.99,-12.97,0,*5A
1489057515.51,11482,8.81,73092.5,-1.69,-15.11,-12.43,0,*50
1489057516.8,11483,8.81,73098.3,-1.69,-14.55,-12.11,0,*57
1489057518.09,11484,8.81,73094.3,-1.65,-14.51,-11.67,0,*5A
1489057519.33,11485,8.81,73096.5,-1.65,-14.37,-11.15,0,*5E
1489057520.57,11486,8.81,73094.8,-1.63,-13.87,-10.27,0,*57
1489057521.8,11487,8.81,73094.0,-1.61,-13.65,-9.71,0,*63
1489057523.02,11488,8.81,73094.3,-1.61,-13.15,-9.31,0,*6F
1489057524.25,11489,8.81,73092.3,-1.61,-12.47,-9.19,0,*62
1489057525.48,11490,8.81,73094.0,-1.55,-11.59,-9.23,0,*68
1489057526.68,11491,8.81,73092.0,-1.55,-10.31,-8.59,0,*6A
1489057527.87,11492,8.81,73090.8,-1.55,-9.89,-8.55,0,*5E
1489057529.11,11493,8.81,73092.3,-1.55,-9.53,-8.03,0,*5B
1489057530.36,11494,8.81,73092.0,-1.51,-8.81,-7.43,0,*5D
1489057531.58,11495,8.81,73092.8,-1.51,-8.51,-7.19,0,*5E
1489057532.86,11496,8.81,73092.0,-1.47,-8.07,-6.63,0,*55
1489057534.07,11497,8.81,73094.5,-1.45,-8.17,-6.31,0,*50
1489057535.31,11498,8.81,73092.8,-1.43,-8.03,-6.13,0,*5C
1489057536.5,11499,8.81,73098.8,-1.41,-8.17,-5.97,0,*55
1489057537.75,11500,8.81,73098.3,-1.39,-8.21,-5.93,0,*5A
1489057538.97,11501,8.81,73094.8,-1.31,-7.53,-5.35,0,*55
1489057540.22,11502,8.81,73094.0,-1.31,-7.11,-5.15,0,*52
1489057541.42,11503,8.81,73092.8,-1.29,-6.13,-4.57,0,*5E
1489057542.7,11504,8.81,73094.5,-1.27,-6.19,-5.11,0,*5E
1489057543.92,11505,8.81,73090.3,-1.23,-5.97,-5.43,0,*59
1489057545.17,11506,8.81,73088.3,-1.23,-5.97,-5.81,0,*54
1489057546.41,11507,8.81,73092.0,-1.21,-5.65,-5.81,0,*5A
1489057547.66,11508,8.81,73090.8,-1.19,-5.47,-5.85,0,*5A
1489057548.88,11509,8.81,73092.5,-1.17,-5.47,-5.89,0,*59
1489057550.14,11510,8.81,73094.3,-1.15,-5.31,-5.93,0,*59
1489057551.41,11511,8.81,73096.8,-1.13,-4.89,-5.73,0,*52
1489057552.67,11512,8.81,73094.0,-1.11,-5.15,-5.89,0,*52
1489057553.88,11513,8.81,73092.8,-1.05,-6.05,-6.77,0,*56
1489057555.11,11514,8.81,73098.0,-1.05,-6.43,-7.19,0,*5A
1489057556.34,11515,8.81,73096.5,-1.03,-6.81,-7.35,0,*5D
1489057557.61,11516,8.81,73096.3,-1.01,-7.05,-7.69,0,*58
1489057558.85,11517,8.81,73098.8,-0.97,-7.23,-7.77,0,*6C
1489057560.07,11518,8.81,73098.8,-0.99,-7.19,-7.99,0,*64
1489057561.31,11519,8.81,73098.5,-0.97,-6.73,-7.39,0,*6C
1489057562.55,11520,8.81,73096.0,-0.93,-6.73,-7.35,0,*6E
1489057563.74,11521,8.81,73096.0,-0.91,-6.69,-7.19,0,*68
1489057564.96,11522,8.81,73098.0,-0.89,-6.59,-7.19,0,*61
1489057566.21,11523,8.81,73096.8,-0.83,-7.11,-7.99,0,*6F
1489057567.42,11524,8.81,73094.8,-0.83,-7.53,-8.33,0,*61
1489057568.68,11525,8.81,73094.8,-0.79,-7.31,-7.69,0,*61
1489057569.9,11526,8.81,73096.5,-0.79,-6.89,-6.51,0,*6A
1489057571.12,11527,8.81,73096.8,-0.75,-7.23,-6.43,0,*65
1489057572.33,11528,8.81,73098.0,-0.71,-6.31,-5.35,0,*6E
1489057573.58,11529,8.81,73092.0,-0.67,-6.39,-5.23,0,*67
1489057574.8,11530,8.81,73092.0,-0.61,-5.97,-4.81,0,*67
1489057576.07,11531,8.81,73092.0,-0.59,-5.81,-4.73,0,*67
1489057577.29,11532,8.81,73094.0,-0.57,-5.89,-4.99,0,*66
1489057578.53,11533,8.81,73094.0,-0.53,-5.89,-5.31,0,*60
1489057579.78,11534,8.81,73096.0,-0.53,-5.65,-5.19,0,*6F
1489057581.05,11535,8.81,73094.3,-0.51,-5.15,-4.93,0,*68
1489057582.3,11536,8.81,73094.3,-0.49,-5.15,-5.27,0,*6C
1489057583.54,11537,8.81,73098.3,-0.47,-5.11,-5.51,0,*66
1489057584.76,11538,8.81,73096.8,-0.45,-5.77,-6.47,0,*6F
1489057585.98,11539,8.81,73098.5,-0.45,-5.81,-6.81,0,*6D
1489057587.17,11540,8.81,73096.8,-0.45,-6.47,-7.53,0,*64
1489057588.43,11541,8.81,73096.5,-0.43,-6.63,-7.57,0,*61
1489057589.67,11542,8.81,73096.8,-0.39,-7.31,-7.87,0,*64
1489057590.94,11543,8.81,73094.8,-0.39,-7.65,-7.99,0,*6B
1489057592.17,11544,8.81,73092.8,-0.39,-8.11,-8.33,0,*6F
1489057593.44,11545,8.81,73094.8,-0.39,-7.95,-8.11,0,*6D
1489057594.65,11546,8.81,73094.5,-0.43,-7.87,-8.25,0,*67
1489057595.89,11547,8.81,73092.3,-0.39,-8.11,-8.67,0,*6D
1489057597.13,11548,8.81,73094.3,-0.43,-8.63,-9.11,0,*6A
1489057598.38,11549,8.81,73094.3,-0.43,-8.85,-9.45,0,*62
1489057599.59,11550,8.81,73090.3,-0.47,-8.75,-9.27,0,*65
1489057600.77,11551,8.81,73088.8,-0.45,-8.29,-8.67,0,*6A
1489057601.98,11552,8.81,73090.3,-0.47,-8.41,-8.67,0,*65
1489057603.19,11553,8.81,73088.8,-0.45,-7.95,-8.17,0,*67
1489057604.43,11554,8.81,73088.5,-0.47,-7.53,-8.03,0,*6D
1489057605.67,11555,8.81,73094.0,-0.47,-7.73,-8.75,0,*6F
1489057606.9,11556,8.81,73096.0,-0.47,-8.03,-9.71,0,*61
1489057608.1,11557,8.81,73092.0,-0.45,-8.17,-10.53,0,*5F
1489057609.32,11558,8.81,73094.5,-0.45,-8.67,-11.77,0,*50
1489057610.54,11559,8.81,73094.3,-0.45,-9.11,-13.15,0,*57
1489057611.73,11560,8.81,73092.5,-0.45,-10.05,-13.69,0,*6B
1489057613.0,11561,8.81,73098.0,-0.43,-9.45,-12.65,0,*5D
1489057614.23,11562,8.81,73094.3,-0.39,-9.89,-12.65,0,*53
1489057615.47,11563,8.81,73094.5,-0.35,-9.93,-11.97,0,*5B
1489057616.68,11564,8.81,73094.8,-0.33,-9.23,-10.31,0,*5C
1489057617.9,11565,8.81,73094.3,-0.31,-8.97,-9.89,0,*6A
1489057619.12,11566,8.81,73096.3,-0.29,-9.57,-10.15,0,*50
1489057620.34,11567,8.81,73092.0,-0.25,-9.83,-10.05,0,*55
1489057621.56,11568,8.81,73094.5,-0.23,-10.53,-10.53,0,*6A
1489057622.77,11569,8.81,73094.0,-0.21,-9.93,-9.53,0,*65
1489057623.99,11570,8.81,73092.8,-0.15,-10.41,-9.89,0,*5A
1489057625.19,11571,8.81,73094.3,-0.15,-10.57,-9.97,0,*53
1489057626.46,11572,8.81,73096.5,-0.13,-10.71,-9.49,0,*51
1489057627.71,11573,8.81,73098.3,-0.09,-10.63,-8.89,0,*65
1489057628.93,11574,8.81,73092.8,-0.09,-10.27,-8.21,0,*60
1489057630.16,11575,8.81,73092.8,-0.05,-10.45,-7.95,0,*69
1489057631.38,11576,8.81,73100.3,-0.05,-10.27,-7.49,0,*6F
1489057632.6,11577,8.81,73098.3,-0.01,-10.23,-7.23,0,*62
1489057633.77,11578,8.81,73094.5,0.01,-9.97,-7.11,0,*76
1489057634.97,11579,8.81,73092.3,0.01,-9.45,-6.89,0,*78
1489057636.2,11580,8.81,73092.5,0.05,-8.81,-6.93,0,*78
1489057637.38,11581,8.81,73092.0,0.05,-8.29,-7.11,0,*70
1489057638.56,11582,8.81,73092.5,0.05,-7.49,-6.81,0,*72
1489057639.78,11583,8.81,73092.8,0.09,-6.63,-5.85,0,*71
1489057641.05,11584,8.81,73092.5,0.13,-5.73,-5.27,0,*47
1489057642.27,11585,8.81,73092.0,0.15,-5.55,-5.19,0,*49
1489057643.48,11586,8.81,73096.8,0.17,-6.31,-6.13,0,*40
1489057644.68,11587,8.81,73096.8,0.17,-6.55,-6.43,0,*46
1489057645.92,11588,8.81,73092.0,0.21,-7.19,-7.01,0,*42
1489057647.19,11589,8.81,73094.3,0.21,-7.73,-7.73,0,*4A
1489057648.4,11590,8.81,73088.3,0.21,-8.41,-8.41,0,*42
1489057649.6,11591,8.81,73080.3,0.21,-8.55,-8.67,0,*42
1489057650.83,11592,8.81,73090.0,0.21,-8.97,-9.57,0,*4D
1489057652.05,11593,8.81,73086.0,0.19,-8.85,-9.37,0,*42
1489057653.29,11594,8.81,73086.0,0.21,-9.23,-9.37,0,*43
1489057654.5,11595,8.81,73086.5,0.21,-8.93,-8.55,0,*4D
1489057655.74,11596,8.81,73086.8,0.23,-7.77,-7.65,0,*45
1489057656.92,11597,8.81,73088.3,0.23,-8.75,-8.75,0,*47
1489057658.11,11598,8.81,73090.3,0.27,-8.75,-8.89,0,*4F
1489057659.31,11599,8.81,73090.3,0.29,-8.21,-8.41,0,*45
1489057660.5,11600,8.81,73092.0,0.31,-8.55,-8.97,0,*47
1489057661.71,11601,8.81,73092.0,0.33,-8.17,-8.85,0,*41
1489057662.9,11602,8.81,73084.8,0.35,-8.89,-9.97,0,*41
1489057664.12,11603,8.81,73090.0,0.37,-9.27,-10.35,0,*77
1489057665.34,11604,8.81,73090.0,0.39,-9.79,-10.67,0,*72
1489057666.55,11605,8.81,73094.0,0.41,-9.79,-10.85,0,*70
1489057667.75,11606,8.81,73088.8,0.43,-10.57,-11.33,0,*49
1489057668.98,11607,8.81,73088.3,0.43,-11.01,-11.29,0,*41
1489057670.19,11608,8.81,73090.8,0.47,-10.27,-9.97,0,*73
1489057671.39,11609,8.81,73088.8,0.47,-10.09,-9.31,0,*72
1489057672.62,11610,8.81,73088.8,0.51,-9.27,-8.03,0,*49
1489057673.88,11611,8.81,73088.3,0.55,-9.37,-7.99,0,*41
1489057675.06,11612,8.81,73094.3,0.57,-10.15,-8.29,0,*7C
1489057676.27,11613,8.88,73092.8,0.57,-10.19,-7.99,0,*75
1489057677.47,11614,8.81,73092.8,0.61,-10.09,-7.77,0,*76
1489057678.69,11615,8.81,73090.5,0.63,-10.27,-7.83,0,*72
1489057679.92,11616,8.88,73092.3,0.63,-10.23,-7.69,0,*71
1489057681.14,11617,8.81,73090.3,0.63,-9.67,-7.39,0,*4D
1489057682.36,11618,8.81,73084.5,0.63,-9.01,-6.89,0,*48
1489057683.53,11619,8.81,73090.0,0.65,-8.29,-6.39,0,*4F
1489057684.74,11620,8.88,73090.3,0.65,-8.11,-6.51,0,*40
1489057685.97,11621,8.88,73092.8,0.67,-7.77,-6.39,0,*42
1489057687.2,11622,8.81,73088.5,0.69,-6.23,-5.07,0,*41
1489057688.41,11623,8.88,73092.0,0.69,-6.01,-5.07,0,*40
1489057689.64,11624,8.81,73088.5,0.73,-5.69,-4.73,0,*43
1489057690.82,11625,8.81,73088.5,0.73,-5.43,-4.65,0,*4D
1489057692.09,11626,8.88,73094.3,0.79,-5.27,-4.89,0,*44
1489057693.3,11627,8.81,73090.5,0.81,-4.69,-4.41,0,*4D
1489057694.49,11628,8.88,73092.0,0.81,-4.65,-4.45,0,*4A
1489057695.75,11629,8.88,73094.0,0.87,-4.81,-4.89,0,*47
1489057697.02,11630,8.88,73094.5,0.87,-5.61,-5.93,0,*4A
1489057698.26,11631,8.88,73088.5,0.89,-4.89,-5.27,0,*4D
1489057699.51,11632,8.88,73092.5,0.89,-5.07,-5.81,0,*45
1489057700.72,11633,8.81,73092.3,0.89,-5.47,-5.93,0,*43
1489057701.92,11634,8.88,73094.5,0.93,-6.09,-6.69,0,*40
1489057703.16,11635,8.88,73090.8,0.97,-5.81,-6.23,0,*48
1489057704.38,11636,8.88,73094.5,0.97,-6.19,-6.59,0,*44
1489057705.62,11637,8.88,73094.8,0.99,-5.61,-6.09,0,*42
1489057706.86,11638,8.88,73092.0,0.99,-6.77,-7.39,0,*4B
1489057708.09,11639,8.88,73092.5,0.99,-6.35,-7.11,0,*46
1489057709.34,11640,8.88,73090.8,0.99,-5.03,-5.97,0,*42